| time (UTC) | temp C | wind direction | speed KPH | gust KPH | rain 1hr cm | rain 24hr cm | rain mn cm | humidity % | barometer mb |
| 20260510033530 | 21 | 147 | 14.5 | 33.8 | 0.03 | 0.10 | 0.10 | 69 | 1007.6 |
| 20260510033037 | 21 | 139 | 17.7 | 33.8 | 0.05 | 0.10 | 0.10 | 69 | 1007.5 |
| 20260510032529 | 21 | 131 | 19.3 | 33.8 | 0.05 | 0.10 | 0.10 | 69 | 1007.2 |
| 20260510032028 | 21 | 129 | 16.1 | 33.8 | 0.08 | 0.10 | 0.10 | 69 | 1007.0 |
| 20260510031542 | 21 | 119 | 20.9 | 33.8 | 0.08 | 0.10 | 0.10 | 68 | 1007.2 |
| 20260510031028 | 21 | 115 | 20.9 | 32.2 | 0.08 | 0.10 | 0.10 | 68 | 1007.1 |
| 20260510030531 | 21 | 131 | 14.5 | 29.0 | 0.08 | 0.10 | 0.10 | 70 | 1007.5 |
| 20260510030041 | 21 | 123 | 17.7 | 33.8 | 0.08 | 0.10 | 0.10 | 71 | 1007.7 |
| 20260510025529 | 21 | 111 | 19.3 | 38.6 | 0.08 | 0.10 | 0.10 | 71 | 1007.7 |
| 20260510025029 | 21 | 123 | 19.3 | 38.6 | 0.08 | 0.10 | 0.10 | 70 | 1007.5 |
| 20260510024551 | 21 | 142 | 22.5 | 38.6 | 0.08 | 0.10 | 0.10 | 70 | 1008.7 |
| 20260510024028 | 22 | 160 | 19.3 | 33.8 | 0.08 | 0.10 | 0.10 | 68 | 1009.5 |
| 20260510023528 | 22 | 194 | 20.9 | 49.9 | 0.05 | 0.08 | 0.08 | 66 | 1010.4 |
| 20260510023038 | 23 | 178 | 29.0 | 54.7 | 0.03 | 0.05 | 0.05 | 62 | 1010.4 |
| 20260510022528 | 23 | 229 | 30.6 | 54.7 | 0.03 | 0.05 | 0.05 | 61 | 1009.9 |
| 20260510022029 | 24 | 180 | 25.7 | 51.5 | 0.00 | 0.03 | 0.03 | 59 | 1009.0 |
| 20260510021543 | 23 | 200 | 20.9 | 51.5 | 0.00 | 0.03 | 0.03 | 60 | 1008.0 |
| 20260510021029 | 23 | 147 | 24.1 | 45.1 | 0.00 | 0.03 | 0.03 | 60 | 1007.4 |
| 20260510020528 | 23 | 165 | 30.6 | 45.1 | 0.00 | 0.03 | 0.03 | 59 | 1006.9 |
| 20260510020047 | 23 | 150 | 20.9 | 33.8 | 0.00 | 0.03 | 0.03 | 58 | 1007.8 |
| 20260510015528 | 24 | 168 | 12.9 | 22.5 | 0.00 | 0.03 | 0.03 | 57 | 1008.4 |
| 20260510015028 | 24 | 148 | 4.8 | 14.5 | 0.00 | 0.03 | 0.03 | 54 | 1009.0 |
| 20260510014548 | 24 | 242 | 9.7 | 14.5 | 0.00 | 0.03 | 0.03 | 56 | 1009.1 |
| 20260510014029 | 25 | 286 | 4.8 | 11.3 | 0.00 | 0.03 | 0.03 | 54 | 1009.0 |
| 20260510013530 | 25 | 250 | 3.2 | 6.4 | 0.00 | 0.03 | 0.03 | 54 | 1008.6 |
| 20260510013041 | 25 | 184 | 3.2 | 6.4 | 0.00 | 0.03 | 0.03 | 52 | 1008.0 |
| 20260510012528 | 25 | 184 | 1.6 | 9.7 | 0.00 | 0.03 | 0.03 | 51 | 1007.9 |
| 20260510012028 | 25 | 184 | 4.8 | 9.7 | 0.00 | 0.03 | 0.03 | 51 | 1007.8 |
| 20260510011540 | 25 | 195 | 4.8 | 12.9 | 0.00 | 0.03 | 0.03 | 50 | 1007.6 |
| 20260510011028 | 25 | 132 | 4.8 | 12.9 | 0.00 | 0.03 | 0.03 | 51 | 1007.4 |
| 20260510010529 | 25 | 105 | 6.4 | 9.7 | 0.00 | 0.03 | 0.03 | 51 | 1007.2 |
| 20260510010059 | 25 | 80 | 4.8 | 12.9 | 0.00 | 0.03 | 0.03 | 51 | 1007.2 |
| 20260510005529 | 25 | 121 | 6.4 | 12.9 | 0.00 | 0.03 | 0.03 | 51 | 1007.0 |
| 20260510005029 | 25 | 128 | 6.4 | 11.3 | 0.00 | 0.03 | 0.03 | 51 | 1007.1 |
| 20260510004541 | 26 | 122 | 3.2 | 11.3 | 0.00 | 0.03 | 0.03 | 51 | 1007.3 |
| 20260510004029 | 26 | 111 | 4.8 | 11.3 | 0.00 | 0.03 | 0.03 | 51 | 1007.3 |
| 20260510003529 | 26 | 120 | 4.8 | 12.9 | 0.00 | 0.03 | 0.03 | 49 | 1007.2 |
| 20260510003039 | 26 | 136 | 4.8 | 14.5 | 0.00 | 0.03 | 0.03 | 49 | 1007.3 |
| 20260510002527 | 26 | 143 | 6.4 | 16.1 | 0.00 | 0.03 | 0.03 | 49 | 1007.3 |
| 20260510002026 | 26 | 117 | 8.0 | 16.1 | 0.00 | 0.03 | 0.03 | 49 | 1007.2 |
| 20260510001537 | 26 | 101 | 6.4 | 16.1 | 0.00 | 0.03 | 0.03 | 49 | 1007.1 |
| 20260510001028 | 26 | 117 | 11.3 | 16.1 | 0.00 | 0.03 | 0.03 | 48 | 1007.1 |
| 20260510000528 | 27 | 126 | 9.7 | 16.1 | 0.00 | 0.03 | 0.03 | 48 | 1007.1 |
| 20260510000042 | 27 | 98 | 9.7 | 17.7 | 0.00 | 0.03 | 0.03 | 47 | 1007.1 |
| 20260509235530 | 27 | 123 | 11.3 | 19.3 | 0.00 | 1.42 | 0.03 | 46 | 1007.1 |
| 20260509235030 | 27 | 128 | 11.3 | 19.3 | 0.00 | 1.42 | 0.03 | 46 | 1007.2 |
| 20260509234600 | 27 | 129 | 9.7 | 20.9 | 0.00 | 1.42 | 0.03 | 45 | 1007.2 |
| 20260509234030 | 28 | 104 | 12.9 | 20.9 | 0.00 | 1.42 | 0.03 | 43 | 1007.2 |
| 20260509233530 | 28 | 124 | 12.9 | 22.5 | 0.00 | 1.42 | 0.03 | 42 | 1007.2 |
| 20260509233043 | 28 | 92 | 14.5 | 22.5 | 0.00 | 1.42 | 0.03 | 43 | 1007.3 |
| 20260509232533 | 28 | 98 | 14.5 | 22.5 | 0.00 | 1.42 | 0.03 | 43 | 1007.3 |
| 20260509232032 | 28 | 144 | 16.1 | 22.5 | 0.00 | 1.42 | 0.03 | 43 | 1007.4 |
| 20260509231539 | 28 | 100 | 11.3 | 20.9 | 0.00 | 1.42 | 0.03 | 42 | 1007.5 |
| 20260509231026 | 28 | 126 | 11.3 | 20.9 | 0.00 | 1.42 | 0.03 | 42 | 1007.6 |
| 20260509230530 | 29 | 90 | 12.9 | 22.5 | 0.00 | 1.42 | 0.03 | 41 | 1007.6 |
| 20260509230038 | 29 | 126 | 12.9 | 24.1 | 0.00 | 1.42 | 0.03 | 41 | 1007.7 |
| 20260509225527 | 29 | 79 | 11.3 | 24.1 | 0.00 | 1.42 | 0.03 | 41 | 1007.7 |
| 20260509225031 | 30 | 125 | 11.3 | 24.1 | 0.00 | 1.42 | 0.03 | 40 | 1007.8 |
| 20260509224538 | 30 | 113 | 12.9 | 17.7 | 0.00 | 1.42 | 0.03 | 39 | 1007.9 |
| 20260509224026 | 30 | 92 | 11.3 | 20.9 | 0.00 | 1.42 | 0.03 | 38 | 1007.9 |
| 20260509223529 | 30 | 113 | 9.7 | 20.9 | 0.00 | 1.42 | 0.03 | 37 | 1008.0 |
| 20260509223045 | 30 | 137 | 12.9 | 20.9 | 0.00 | 1.42 | 0.03 | 37 | 1008.0 |
| 20260509222528 | 30 | 119 | 8.0 | 17.7 | 0.00 | 1.42 | 0.03 | 37 | 1008.1 |
| 20260509222027 | 30 | 96 | 9.7 | 17.7 | 0.00 | 1.42 | 0.03 | 37 | 1008.1 |
| 20260509221602 | 30 | 78 | 9.7 | 16.1 | 0.00 | 1.42 | 0.03 | 38 | 1008.1 |
| 20260509221030 | 30 | 120 | 6.4 | 19.3 | 0.00 | 1.42 | 0.03 | 36 | 1008.1 |
| 20260509220529 | 30 | 130 | 9.7 | 19.3 | 0.00 | 1.42 | 0.03 | 37 | 1008.2 |
| 20260509220048 | 30 | 136 | 6.4 | 14.5 | 0.00 | 1.42 | 0.03 | 37 | 1008.2 |
| 20260509215530 | 30 | 61 | 8.0 | 17.7 | 0.00 | 1.42 | 0.03 | 35 | 1008.2 |
| 20260509215030 | 30 | 70 | 11.3 | 17.7 | 0.00 | 1.42 | 0.03 | 36 | 1008.3 |
| 20260509214540 | 30 | 130 | 8.0 | 17.7 | 0.00 | 1.42 | 0.03 | 35 | 1008.3 |
| 20260509214026 | 30 | 182 | 3.2 | 17.7 | 0.00 | 1.42 | 0.03 | 35 | 1008.3 |
| 20260509213527 | 30 | 148 | 8.0 | 17.7 | 0.00 | 1.42 | 0.03 | 34 | 1008.4 |
| 20260509213038 | 30 | 134 | 6.4 | 16.1 | 0.00 | 1.42 | 0.03 | 35 | 1008.4 |
| 20260509212532 | 30 | 141 | 6.4 | 14.5 | 0.00 | 1.42 | 0.03 | 35 | 1008.4 |
| 20260509212029 | 30 | 98 | 3.2 | 14.5 | 0.00 | 1.42 | 0.03 | 36 | 1008.5 |
| 20260509211538 | 30 | 100 | 6.4 | 16.1 | 0.00 | 1.42 | 0.03 | 37 | 1008.6 |
| 20260509211029 | 30 | 82 | 9.7 | 19.3 | 0.00 | 1.42 | 0.03 | 36 | 1008.6 |
| 20260509210529 | 30 | 118 | 6.4 | 19.3 | 0.00 | 1.42 | 0.03 | 36 | 1008.7 |
| 20260509210037 | 30 | 143 | 8.0 | 17.7 | 0.00 | 1.42 | 0.03 | 34 | 1008.8 |
| 20260509205529 | 30 | 172 | 4.8 | 16.1 | 0.00 | 1.42 | 0.03 | 34 | 1008.8 |
| 20260509205029 | 30 | 88 | 6.4 | 17.7 | 0.00 | 1.42 | 0.03 | 32 | 1008.9 |
| 20260509204541 | 30 | 98 | 8.0 | 17.7 | 0.00 | 1.42 | 0.03 | 33 | 1008.9 |
| 20260509204030 | 30 | 121 | 3.2 | 16.1 | 0.00 | 1.42 | 0.03 | 34 | 1009.0 |
| 20260509203530 | 30 | 111 | 11.3 | 16.1 | 0.00 | 1.42 | 0.03 | 33 | 1009.0 |
| 20260509203045 | 30 | 349 | 3.2 | 14.5 | 0.00 | 1.42 | 0.03 | 34 | 1009.1 |
| 20260509202530 | 30 | 326 | 3.2 | 14.5 | 0.00 | 1.42 | 0.03 | 34 | 1009.1 |
| 20260509202032 | 30 | 66 | 8.0 | 14.5 | 0.00 | 1.42 | 0.03 | 34 | 1009.2 |
| 20260509201537 | 30 | 130 | 3.2 | 8.0 | 0.00 | 1.42 | 0.03 | 35 | 1009.3 |
| 20260509201033 | 30 | 122 | 1.6 | 14.5 | 0.00 | 1.42 | 0.03 | 37 | 1009.3 |
| 20260509200532 | 29 | 118 | 3.2 | 14.5 | 0.00 | 1.42 | 0.03 | 36 | 1009.3 |
| 20260509200043 | 29 | 138 | 4.8 | 14.5 | 0.00 | 1.42 | 0.03 | 37 | 1009.4 |
| 20260509195530 | 30 | 167 | 4.8 | 11.3 | 0.00 | 1.42 | 0.03 | 36 | 1009.4 |
| 20260509195029 | 29 | 104 | 4.8 | 11.3 | 0.00 | 1.42 | 0.03 | 39 | 1009.5 |
| 20260509194538 | 30 | 186 | 3.2 | 9.7 | 0.00 | 1.42 | 0.03 | 37 | 1009.5 |
| 20260509194029 | 29 | 91 | 4.8 | 11.3 | 0.00 | 1.42 | 0.03 | 36 | 1009.6 |
| 20260509193529 | 29 | 66 | 3.2 | 12.9 | 0.00 | 1.42 | 0.03 | 38 | 1009.7 |
| 20260509193051 | 29 | 26 | 3.2 | 12.9 | 0.00 | 1.42 | 0.03 | 38 | 1009.8 |
| 20260509192530 | 29 | 94 | 4.8 | 12.9 | 0.00 | 1.42 | 0.03 | 38 | 1009.7 |
| 20260509192041 | 30 | 52 | 4.8 | 12.9 | 0.00 | 1.42 | 0.03 | 39 | 1009.7 |
| 20260509191606 | 30 | 46 | 1.6 | 12.9 | 0.00 | 1.42 | 0.03 | 37 | 1009.7 |
| 20260509191032 | 30 | 0 | 1.6 | 12.9 | 0.00 | 1.42 | 0.03 | 36 | 1009.9 |
| 20260509190533 | 30 | 36 | 6.4 | 12.9 | 0.00 | 1.42 | 0.03 | 37 | 1009.9 |
| 20260509190047 | 29 | 154 | 6.4 | 12.9 | 0.00 | 1.42 | 0.03 | 39 | 1009.9 |
| 20260509185530 | 29 | 98 | 1.6 | 11.3 | 0.00 | 1.42 | 0.03 | 38 | 1009.9 |
| 20260509185030 | 28 | 5 | 3.2 | 12.9 | 0.00 | 1.42 | 0.03 | 38 | 1010.0 |
| 20260509184541 | 28 | 85 | 6.4 | 12.9 | 0.00 | 1.42 | 0.03 | 42 | 1010.1 |
| 20260509184029 | 28 | 88 | 1.6 | 11.3 | 0.00 | 1.42 | 0.03 | 40 | 1010.2 |
| 20260509183532 | 28 | 55 | 4.8 | 16.1 | 0.00 | 1.42 | 0.03 | 40 | 1010.3 |
| 20260509183042 | 28 | 101 | 9.7 | 16.1 | 0.00 | 1.42 | 0.03 | 41 | 1010.3 |
| 20260509182530 | 28 | 77 | 9.7 | 16.1 | 0.00 | 1.42 | 0.03 | 41 | 1010.4 |
| 20260509182029 | 28 | 104 | 11.3 | 16.1 | 0.00 | 1.42 | 0.03 | 41 | 1010.4 |
| 20260509181540 | 28 | 115 | 6.4 | 14.5 | 0.00 | 1.42 | 0.03 | 43 | 1010.6 |
| 20260509181032 | 27 | 163 | 3.2 | 14.5 | 0.00 | 1.42 | 0.03 | 43 | 1010.6 |
| 20260509180530 | 27 | 148 | 8.0 | 14.5 | 0.00 | 1.42 | 0.03 | 44 | 1010.7 |
| 20260509180046 | 27 | 78 | 1.6 | 14.5 | 0.00 | 1.42 | 0.03 | 44 | 1010.9 |
| 20260509175530 | 27 | 133 | 9.7 | 14.5 | 0.00 | 1.42 | 0.03 | 43 | 1011.0 |
| 20260509175030 | 27 | 112 | 4.8 | 12.9 | 0.00 | 1.42 | 0.03 | 42 | 1011.0 |
| 20260509174548 | 27 | 134 | 6.4 | 12.9 | 0.00 | 1.42 | 0.03 | 45 | 1011.1 |
| 20260509174029 | 27 | 69 | 6.4 | 12.9 | 0.00 | 1.42 | 0.03 | 44 | 1011.2 |
| 20260509173529 | 27 | 60 | 1.6 | 9.7 | 0.00 | 1.42 | 0.03 | 46 | 1011.3 |
| 20260509173052 | 27 | 61 | 3.2 | 14.5 | 0.00 | 1.42 | 0.03 | 43 | 1011.4 |
| 20260509172530 | 26 | 110 | 8.0 | 14.5 | 0.00 | 1.42 | 0.03 | 46 | 1011.5 |
| 20260509172031 | 26 | 124 | 4.8 | 11.3 | 0.00 | 1.42 | 0.03 | 47 | 1011.5 |
| 20260509171547 | 26 | 0 | 3.2 | 12.9 | 0.00 | 1.42 | 0.03 | 48 | 1011.5 |
| 20260509171030 | 26 | 150 | 6.4 | 14.5 | 0.00 | 1.42 | 0.03 | 47 | 1011.5 |
| 20260509170530 | 26 | 159 | 8.0 | 14.5 | 0.00 | 1.42 | 0.03 | 52 | 1011.6 |
| 20260509170047 | 25 | 167 | 6.4 | 14.5 | 0.00 | 1.42 | 0.03 | 53 | 1011.5 |
| 20260509165532 | 25 | 136 | 4.8 | 16.1 | 0.00 | 1.42 | 0.03 | 56 | 1011.5 |
| 20260509165029 | 25 | 120 | 8.0 | 16.1 | 0.00 | 1.42 | 0.03 | 59 | 1011.7 |
| 20260509164549 | 25 | 152 | 8.0 | 14.5 | 0.00 | 1.42 | 0.03 | 59 | 1011.7 |
| 20260509164033 | 25 | 108 | 4.8 | 16.1 | 0.00 | 1.42 | 0.03 | 65 | 1011.7 |
| 20260509163529 | 24 | 186 | 6.4 | 16.1 | 0.00 | 1.42 | 0.03 | 64 | 1011.8 |
| 20260509163105 | 24 | 144 | 3.2 | 16.1 | 0.00 | 1.42 | 0.03 | 67 | 1011.7 |
| 20260509162531 | 23 | 159 | 9.7 | 16.1 | 0.00 | 1.42 | 0.03 | 67 | 1011.6 |
| 20260509162031 | 23 | 160 | 8.0 | 14.5 | 0.00 | 1.42 | 0.03 | 67 | 1011.8 |
| 20260509161537 | 23 | 188 | 9.7 | 14.5 | 0.00 | 1.42 | 0.03 | 69 | 1011.7 |
| 20260509161033 | 23 | 219 | 6.4 | 14.5 | 0.00 | 1.42 | 0.03 | 71 | 1011.7 |
| 20260509160530 | 22 | 126 | 8.0 | 17.7 | 0.00 | 1.42 | 0.03 | 73 | 1011.6 |
| 20260509160038 | 23 | 160 | 9.7 | 17.7 | 0.00 | 1.42 | 0.03 | 75 | 1011.6 |
| 20260509155529 | 22 | 147 | 6.4 | 17.7 | 0.00 | 1.42 | 0.03 | 74 | 1011.8 |
| 20260509155030 | 23 | 180 | 9.7 | 17.7 | 0.00 | 1.42 | 0.03 | 74 | 1011.8 |
| 20260509154546 | 22 | 201 | 6.4 | 16.1 | 0.00 | 1.42 | 0.03 | 77 | 1011.8 |
| 20260509154030 | 22 | 145 | 8.0 | 16.1 | 0.00 | 1.42 | 0.03 | 75 | 1011.7 |
| 20260509153533 | 22 | 136 | 9.7 | 16.1 | 0.00 | 1.42 | 0.03 | 74 | 1011.6 |
| 20260509153108 | 22 | 138 | 3.2 | 12.9 | 0.00 | 1.42 | 0.03 | 77 | 1011.7 |
| 20260509152532 | 22 | 128 | 4.8 | 17.7 | 0.00 | 1.42 | 0.03 | 76 | 1011.7 |
| 20260509152032 | 21 | 139 | 8.0 | 17.7 | 0.00 | 1.42 | 0.03 | 77 | 1011.9 |
| 20260509151543 | 21 | 110 | 8.0 | 16.1 | 0.00 | 1.42 | 0.03 | 77 | 1011.8 |
| 20260509151029 | 21 | 117 | 6.4 | 16.1 | 0.00 | 1.42 | 0.03 | 79 | 1011.8 |
| 20260509150531 | 21 | 156 | 8.0 | 16.1 | 0.00 | 1.42 | 0.03 | 81 | 1011.8 |
| 20260509150042 | 20 | 184 | 8.0 | 16.1 | 0.00 | 1.42 | 0.03 | 83 | 1011.8 |
| 20260509145531 | 20 | 131 | 6.4 | 12.9 | 0.00 | 1.42 | 0.03 | 85 | 1011.9 |
| 20260509145030 | 20 | 123 | 4.8 | 12.9 | 0.00 | 1.42 | 0.03 | 85 | 1011.9 |
| 20260509144546 | 20 | 140 | 3.2 | 12.9 | 0.00 | 1.42 | 0.03 | 85 | 1011.8 |
| 20260509144028 | 20 | 103 | 3.2 | 11.3 | 0.00 | 1.42 | 0.03 | 86 | 1011.6 |
| 20260509143529 | 20 | 97 | 6.4 | 11.3 | 0.00 | 1.42 | 0.03 | 86 | 1011.4 |
| 20260509143038 | 19 | 82 | 4.8 | 11.3 | 0.00 | 1.42 | 0.03 | 87 | 1011.4 |
| 20260509142528 | 19 | 92 | 4.8 | 12.9 | 0.00 | 1.42 | 0.03 | 88 | 1011.4 |
| 20260509142028 | 19 | 116 | 8.0 | 12.9 | 0.00 | 1.42 | 0.03 | 88 | 1011.3 |
| 20260509141545 | 18 | 92 | 6.4 | 12.9 | 0.00 | 1.42 | 0.03 | 90 | 1011.3 |
| 20260509141028 | 18 | 54 | 1.6 | 6.4 | 0.00 | 1.42 | 0.03 | 91 | 1011.3 |
| 20260509140528 | 18 | 130 | 0.0 | 6.4 | 0.00 | 1.42 | 0.03 | 93 | 1011.4 |
| 20260509140038 | 17 | 5 | 1.6 | 6.4 | 0.00 | 1.42 | 0.03 | 93 | 1011.5 |
| 20260509135529 | 17 | 5 | 0.0 | 4.8 | 0.00 | 1.42 | 0.03 | 94 | 1011.5 |
| 20260509135028 | 17 | 0 | 0.0 | 4.8 | 0.00 | 1.42 | 0.03 | 94 | 1011.5 |
| 20260509134553 | 17 | 5 | 0.0 | 4.8 | 0.00 | 1.42 | 0.03 | 95 | 1011.4 |
| 20260509134031 | 17 | 5 | 1.6 | 4.8 | 0.00 | 1.42 | 0.03 | 95 | 1011.4 |
| 20260509133532 | 17 | 5 | 0.0 | 3.2 | 0.00 | 1.42 | 0.03 | 95 | 1011.4 |
| 20260509133042 | 16 | 5 | 0.0 | 3.2 | 0.00 | 1.42 | 0.03 | 95 | 1011.2 |
| 20260509132528 | 16 | 0 | 0.0 | 3.2 | 0.00 | 1.42 | 0.03 | 95 | 1011.1 |
| 20260509132027 | 16 | 0 | 0.0 | 3.2 | 0.00 | 1.42 | 0.03 | 95 | 1011.0 |
| 20260509131557 | 15 | 0 | 0.0 | 3.2 | 0.00 | 1.42 | 0.03 | 95 | 1011.0 |
| 20260509131029 | 15 | 0 | 0.0 | 3.2 | 0.00 | 1.42 | 0.03 | 95 | 1011.0 |
| 20260509130531 | 15 | 0 | 0.0 | 3.2 | 0.00 | 1.42 | 0.03 | 95 | 1010.9 |
| 20260509130049 | 15 | 5 | 0.0 | 3.2 | 0.00 | 1.42 | 0.03 | 95 | 1010.8 |
| 20260509125528 | 15 | 0 | 0.0 | 3.2 | 0.00 | 1.42 | 0.03 | 95 | 1010.7 |
| 20260509125028 | 15 | 0 | 0.0 | 0.0 | 0.00 | 1.42 | 0.03 | 95 | 1010.7 |
| 20260509124543 | 15 | 0 | 0.0 | 3.2 | 0.00 | 1.42 | 0.03 | 95 | 1010.7 |
| 20260509124029 | 14 | 0 | 0.0 | 3.2 | 0.00 | 1.42 | 0.03 | 95 | 1010.5 |
| 20260509123529 | 14 | 5 | 0.0 | 3.2 | 0.03 | 1.42 | 0.03 | 95 | 1010.5 |
| 20260509123049 | 14 | 0 | 0.0 | 0.0 | 0.03 | 1.42 | 0.03 | 94 | 1010.4 |
| 20260509122554 | 13 | 0 | 0.0 | 0.0 | 0.03 | 1.42 | 0.03 | 95 | 1010.3 |
| 20260509122028 | 13 | 0 | 0.0 | 0.0 | 0.03 | 1.42 | 0.03 | 94 | 1010.4 |
| 20260509121539 | 13 | 0 | 0.0 | 3.2 | 0.03 | 1.42 | 0.03 | 94 | 1010.4 |
| 20260509121028 | 13 | 0 | 0.0 | 4.8 | 0.03 | 1.42 | 0.03 | 94 | 1010.3 |
| 20260509120530 | 13 | 5 | 0.0 | 4.8 | 0.03 | 1.42 | 0.03 | 94 | 1010.3 |
| 20260509120039 | 13 | 5 | 1.6 | 3.2 | 0.03 | 1.42 | 0.03 | 94 | 1010.3 |
| 20260509115528 | 13 | 0 | 0.0 | 4.8 | 0.03 | 1.42 | 0.03 | 94 | 1010.3 |
| 20260509115028 | 13 | 0 | 0.0 | 4.8 | 0.03 | 1.42 | 0.03 | 94 | 1010.3 |
| 20260509114538 | 13 | 5 | 1.6 | 3.2 | 0.03 | 1.42 | 0.03 | 94 | 1010.2 |
| 20260509114028 | 13 | 0 | 0.0 | 4.8 | 0.03 | 1.42 | 0.03 | 94 | 1010.2 |
| 20260509113533 | 13 | 0 | 0.0 | 4.8 | 0.00 | 1.40 | 0.00 | 94 | 1010.1 |
| 20260509113038 | 13 | 5 | 1.6 | 4.8 | 0.00 | 1.40 | 0.00 | 94 | 1009.9 |
| 20260509112528 | 13 | 5 | 0.0 | 4.8 | 0.00 | 1.40 | 0.00 | 94 | 1009.9 |
| 20260509112028 | 13 | 5 | 0.0 | 4.8 | 0.00 | 1.40 | 0.00 | 94 | 1009.7 |
| 20260509111542 | 13 | 5 | 1.6 | 4.8 | 0.00 | 1.40 | 0.00 | 94 | 1009.6 |
| 20260509111029 | 13 | 0 | 0.0 | 0.0 | 0.00 | 1.40 | 0.00 | 94 | 1009.8 |
| 20260509110531 | 13 | 0 | 0.0 | 0.0 | 0.00 | 1.40 | 0.00 | 93 | 1009.7 |
| 20260509110044 | 13 | 0 | 0.0 | 0.0 | 0.00 | 1.40 | 0.00 | 93 | 1009.5 |
| 20260509105529 | 13 | 0 | 0.0 | 0.0 | 0.00 | 1.40 | 0.00 | 93 | 1009.5 |
| 20260509105031 | 13 | 0 | 0.0 | 0.0 | 0.00 | 1.40 | 0.00 | 93 | 1009.6 |
| 20260509104548 | 13 | 0 | 0.0 | 0.0 | 0.00 | 1.40 | 0.00 | 93 | 1009.6 |
| 20260509104027 | 13 | 0 | 0.0 | 0.0 | 0.00 | 1.40 | 0.00 | 93 | 1009.6 |
| 20260509103529 | 13 | 0 | 0.0 | 0.0 | 0.00 | 1.40 | 0.00 | 93 | 1009.7 |
| 20260509103038 | 13 | 0 | 0.0 | 0.0 | 0.00 | 1.40 | 0.00 | 93 | 1009.7 |
| 20260509102532 | 13 | 0 | 0.0 | 0.0 | 0.00 | 1.40 | 0.00 | 93 | 1009.8 |
| 20260509102029 | 13 | 0 | 0.0 | 0.0 | 0.00 | 1.40 | 0.00 | 93 | 1009.8 |
| 20260509101538 | 13 | 0 | 0.0 | 0.0 | 0.00 | 1.40 | 0.00 | 93 | 1009.9 |
| 20260509101028 | 14 | 0 | 0.0 | 0.0 | 0.00 | 1.40 | 0.00 | 93 | 1010.0 |
| 20260509100528 | 14 | 0 | 0.0 | 0.0 | 0.00 | 1.40 | 0.00 | 93 | 1010.1 |
| 20260509100044 | 14 | 0 | 0.0 | 0.0 | 0.00 | 1.40 | 0.00 | 93 | 1010.2 |
| 20260509095528 | 14 | 0 | 0.0 | 1.6 | 0.00 | 1.40 | 0.00 | 93 | 1010.1 |
| 20260509095027 | 14 | 0 | 0.0 | 3.2 | 0.00 | 1.40 | 0.00 | 93 | 1010.1 |
| 20260509094539 | 14 | 0 | 0.0 | 6.4 | 0.00 | 1.40 | 0.00 | 93 | 1010.1 |
| 20260509094028 | 14 | 5 | 1.6 | 6.4 | 0.00 | 1.40 | 0.00 | 93 | 1010.1 |
| 20260509093529 | 14 | 5 | 3.2 | 6.4 | 0.00 | 1.40 | 0.00 | 93 | 1010.1 |
| 20260509093038 | 14 | 5 | 0.0 | 4.8 | 0.00 | 1.40 | 0.00 | 93 | 1010.2 |
| 20260509092527 | 14 | 0 | 0.0 | 0.0 | 0.00 | 1.40 | 0.00 | 93 | 1010.1 |
| 20260509092031 | 14 | 0 | 0.0 | 0.0 | 0.00 | 1.40 | 0.00 | 93 | 1010.1 |
| 20260509091538 | 15 | 0 | 0.0 | 0.0 | 0.00 | 1.40 | 0.00 | 93 | 1010.1 |
| 20260509091030 | 15 | 0 | 0.0 | 0.0 | 0.00 | 1.40 | 0.00 | 93 | 1009.9 |
| 20260509090529 | 15 | 0 | 0.0 | 1.6 | 0.00 | 1.40 | 0.00 | 93 | 1009.9 |
| 20260509090046 | 15 | 0 | 0.0 | 1.6 | 0.00 | 1.40 | 0.00 | 93 | 1010.0 |
| 20260509085528 | 15 | 0 | 0.0 | 0.0 | 0.00 | 1.40 | 0.00 | 93 | 1010.0 |
| 20260509085031 | 15 | 0 | 0.0 | 0.0 | 0.00 | 1.40 | 0.00 | 93 | 1010.1 |
| 20260509084551 | 15 | 0 | 0.0 | 0.0 | 0.00 | 1.40 | 0.00 | 93 | 1010.1 |
| 20260509084028 | 15 | 0 | 0.0 | 0.0 | 0.00 | 1.40 | 0.00 | 93 | 1010.1 |
| 20260509083529 | 15 | 0 | 0.0 | 0.0 | 0.00 | 1.40 | 0.00 | 93 | 1010.1 |
| 20260509083045 | 15 | 0 | 0.0 | 0.0 | 0.00 | 1.40 | 0.00 | 93 | 1010.0 |
| 20260509082529 | 15 | 0 | 0.0 | 0.0 | 0.00 | 1.40 | 0.00 | 93 | 1010.1 |
| 20260509082030 | 15 | 0 | 0.0 | 0.0 | 0.00 | 1.40 | 0.00 | 93 | 1010.3 |
| 20260509081543 | 15 | 0 | 0.0 | 3.2 | 0.00 | 1.40 | 0.00 | 93 | 1010.4 |
| 20260509081032 | 15 | 0 | 0.0 | 3.2 | 0.00 | 1.40 | 0.00 | 93 | 1010.4 |
| 20260509080528 | 15 | 0 | 0.0 | 1.6 | 0.00 | 1.40 | 0.00 | 93 | 1010.4 |
| 20260509080038 | 15 | 0 | 0.0 | 1.6 | 0.00 | 1.40 | 0.00 | 93 | 1010.4 |
| 20260509075527 | 15 | 0 | 0.0 | 0.0 | 0.00 | 1.40 | 0.00 | 93 | 1010.5 |
| 20260509075028 | 15 | 0 | 0.0 | 0.0 | 0.00 | 1.40 | 0.00 | 93 | 1010.4 |
| 20260509074540 | 15 | 0 | 0.0 | 3.2 | 0.00 | 1.40 | 0.00 | 93 | 1010.4 |
| 20260509074032 | 15 | 0 | 0.0 | 3.2 | 0.00 | 1.40 | 0.00 | 93 | 1010.5 |
| 20260509073528 | 15 | 5 | 0.0 | 3.2 | 0.00 | 1.40 | 0.00 | 93 | 1010.6 |
| 20260509073041 | 15 | 0 | 0.0 | 0.0 | 0.00 | 1.40 | 0.00 | 93 | 1010.6 |
| 20260509072539 | 15 | 0 | 0.0 | 3.2 | 0.00 | 1.40 | 0.00 | 93 | 1010.7 |
| 20260509072027 | 15 | 0 | 0.0 | 3.2 | 0.00 | 1.40 | 0.00 | 93 | 1010.6 |
| 20260509071539 | 16 | 5 | 1.6 | 3.2 | 0.00 | 1.40 | 0.00 | 93 | 1010.8 |
| 20260509071028 | 16 | 5 | 0.0 | 3.2 | 0.00 | 1.40 | 0.00 | 93 | 1010.8 |
| 20260509070528 | 16 | 0 | 0.0 | 0.0 | 0.00 | 1.40 | 0.00 | 93 | 1010.9 |
| 20260509070044 | 16 | 0 | 0.0 | 0.0 | 0.00 | 1.40 | 0.00 | 93 | 1010.9 |
| 20260509065527 | 16 | 0 | 0.0 | 0.0 | 0.00 | 1.40 | 0.00 | 93 | 1010.7 |
| 20260509065031 | 16 | 0 | 0.0 | 0.0 | 0.00 | 1.40 | 0.00 | 93 | 1010.8 |
| 20260509064538 | 16 | 0 | 0.0 | 0.0 | 0.00 | 1.40 | 0.00 | 93 | 1010.9 |
| 20260509064029 | 16 | 0 | 0.0 | 0.0 | 0.00 | 1.40 | 0.00 | 93 | 1011.1 |
| 20260509063529 | 16 | 0 | 0.0 | 0.0 | 0.00 | 1.40 | 0.00 | 93 | 1011.1 |
| 20260509063038 | 16 | 0 | 0.0 | 0.0 | 0.00 | 1.40 | 0.00 | 93 | 1011.0 |
| 20260509062532 | 16 | 0 | 0.0 | 0.0 | 0.00 | 1.40 | 0.00 | 93 | 1011.1 |
| 20260509062029 | 16 | 0 | 0.0 | 0.0 | 0.00 | 1.40 | 0.00 | 93 | 1011.2 |
| 20260509061542 | 16 | 0 | 0.0 | 0.0 | 0.00 | 1.40 | 0.00 | 93 | 1011.3 |
| 20260509061029 | 16 | 0 | 0.0 | 0.0 | 0.00 | 1.40 | 0.00 | 93 | 1011.3 |
| 20260509060531 | 16 | 0 | 0.0 | 0.0 | 0.00 | 1.40 | 0.00 | 93 | 1011.3 |
| 20260509060040 | 16 | 0 | 0.0 | 0.0 | 0.00 | 1.40 | 0.00 | 93 | 1011.4 |
| 20260509055531 | 16 | 0 | 0.0 | 0.0 | 0.00 | 1.40 | 0.00 | 93 | 1011.4 |
| 20260509055028 | 16 | 0 | 0.0 | 3.2 | 0.00 | 1.40 | 0.00 | 93 | 1011.4 |
| 20260509054548 | 16 | 0 | 0.0 | 4.8 | 0.00 | 1.40 | 0.00 | 93 | 1011.4 |
| 20260509054027 | 16 | 0 | 0.0 | 4.8 | 0.00 | 1.40 | 0.00 | 93 | 1011.4 |
| 20260509053530 | 16 | 5 | 1.6 | 4.8 | 0.00 | 1.40 | 0.00 | 93 | 1011.4 |
| 20260509053131 | 16 | 0 | 0.0 | 4.8 | 0.00 | 1.40 | 0.00 | 93 | 1011.4 |
| 20260509052527 | 16 | 0 | 0.0 | 6.4 | 0.00 | 1.40 | 0.00 | 93 | 1011.2 |
| 20260509052028 | 16 | 5 | 0.0 | 6.4 | 0.00 | 1.40 | 0.00 | 93 | 1011.1 |
| 20260509051546 | 16 | 0 | 1.6 | 12.9 | 0.00 | 1.40 | 0.00 | 93 | 1010.9 |
| 20260509051029 | 16 | 0 | 3.2 | 12.9 | 0.00 | 1.40 | 0.00 | 93 | 1010.6 |
| 20260509050529 | 16 | 22 | 6.4 | 12.9 | 0.00 | 1.40 | 0.00 | 93 | 1010.2 |
| 20260509050047 | 16 | 360 | 3.2 | 8.0 | 0.00 | 1.40 | 0.00 | 92 | 1010.2 |
| 20260509045528 | 16 | 349 | 1.6 | 8.0 | 0.00 | 1.40 | 1.40 | 92 | 1010.0 |
| 20260509045029 | 16 | 0 | 1.6 | 8.0 | 0.00 | 1.40 | 1.40 | 92 | 1010.0 |
| 20260509044537 | 16 | 46 | 4.8 | 8.0 | 0.00 | 1.40 | 1.40 | 92 | 1010.0 |
| 20260509044028 | 16 | 36 | 3.2 | 8.0 | 0.00 | 1.40 | 1.40 | 92 | 1009.9 |
| 20260509043527 | 16 | 60 | 4.8 | 6.4 | 0.00 | 1.40 | 1.40 | 92 | 1009.9 |
| 20260509043037 | 16 | 81 | 1.6 | 4.8 | 0.00 | 1.40 | 1.40 | 92 | 1009.7 |
| 20260509042531 | 16 | 0 | 0.0 | 0.0 | 0.00 | 1.40 | 1.40 | 92 | 1009.7 |
| 20260509042027 | 16 | 0 | 0.0 | 0.0 | 0.00 | 1.40 | 1.40 | 92 | 1009.9 |
| 20260509041538 | 16 | 0 | 0.0 | 0.0 | 0.00 | 1.40 | 1.40 | 92 | 1009.9 |
| 20260509041029 | 16 | 0 | 0.0 | 0.0 | 0.00 | 1.40 | 1.40 | 92 | 1009.8 |
| 20260509040529 | 16 | 0 | 0.0 | 0.0 | 0.00 | 1.40 | 1.40 | 92 | 1009.9 |
| 20260509040101 | 16 | 0 | 0.0 | 0.0 | 0.00 | 1.40 | 1.40 | 92 | 1010.0 |
| 20260509035528 | 16 | 0 | 0.0 | 1.6 | 0.00 | 1.40 | 1.40 | 92 | 1010.1 |
| 20260509035031 | 16 | 0 | 0.0 | 1.6 | 0.00 | 1.40 | 1.40 | 92 | 1010.0 |
| 20260509034541 | 16 | 0 | 0.0 | 3.2 | 0.00 | 1.40 | 1.40 | 92 | 1009.9 |
| 20260509034031 | 16 | 0 | 0.0 | 3.2 | 0.00 | 1.40 | 1.40 | 91 | 1010.0 |